FENGYUN 1C DEB, 31023

Orbit data source: Space-Track

FENGYUN 1C DEB, 31023 is space debris in SSO originally from a launch on Mon, 10 May 1999 UTC launched from the Taiyaun Space Center, China (TSC). Fengyun 1C debris stems from the Chinese weather satellite Fengyun-1C, which was intentionally destroyed by a Chinese anti-satellite missile in 2007. This event dramatically increased the amount of space debris, with thousands of trackable fragments posing hazards to satellites and human spaceflight. The Fengyun 1C debris cloud has become a focal point in discussions about space sustainability and the need for international regulations to prevent the creation of new debris.

Loading next visibility...
Identifier
31023, 1999-025BDR
Orbit
SSO
Country
Flag of CNCN / PRC
Related business
Manufacturer
Unknown
Mission
Spacecraft
Bus & Motor
Unknown
Mass
Unknown
Launch date (UTC)
1999-05-10 (27 years ago)
Launch vehicle
Unknown
Launch site
Taiyaun Space Center, China (TSC)
Object type
Payload
Rocket body
Debris
Shape & HBR
Unknown shape, 0.1 m
Radar Cross Section
Small (<0.1 m²)

Expand to show TLE details & history
Last TLE update: 6 days ago

TLE from 6 days ago
0 FENGYUN 1C DEB
1 31023U 99025BDR 26032.78708578  .00000051  00000-0  54707-4 0  9990
2 31023  98.8188  21.9413 0083378  78.4236 282.6278 14.06721908702194
Epoch: 2026-02-01T18:53Z
TLE epoch observation values (Epoch: 2026-02-01T18:53:24.211Z)
Latitude
-0.00005°
Longitude
-33.40129°
Altitude
860.77 km
Speed
7.429 km/s
True Right ascension
01h 27m 45s
True Declination
0° 00' 00"
Sunlit
Object was in daylight at epoch
Visualization orbit readout
Latitude
Unknown
Longitude
Unknown
Altitude
Unknown
Speed
Unknown
Apparent Right ascension
Unknown
Apparent Declination
Unknown
Sunlit
N/A
Visualization observer readout
Local Sidereal Time
17:53:22
Azimuth
Unknown
Elevation
Unknown
Doppler factor
Unknown
Orbital elements
Apogee altitude
928.208 km
Perigee altitude
807.377 km
Semi-major axis
7,245.929 km
Eccentricity
0.00834
Inclination
98.8188°
RAAN
21.9413°
Arg. of periapsis
78.4236°
True anomaly
281.69338°
Mean anomaly
282.6278°
Eccentric anomaly
282.1608°
Mean motion
3.51886 °/min
Orbital period
102.31 mins
BSTAR
0.000054707
Loading maneuver chart data...
Computing Atmospheric mass density...

Documentation

Showing up to 5 results
|